CW0179 Weather Reports


Display with metric or nautical units.
time (UTC)temp
F
wind
direction
speed
MPH
gust
MPH
rain 1hr
in
rain 24hr
in
rain mn
in
humidity
%
barometer
mb
20260906154232 72 221 0.0 4.0 0.00 0.06 0.06 70 1014.7
20260906153247 71 59 0.0 1.0 0.00 0.06 0.06 73 1014.7
20260906152253 71 181 0.0 2.0 0.00 0.06 0.06 75 1014.7
20260906151252 70 214 0.0 2.0 0.00 0.06 0.06 74 1014.8
20260906150224 70 166 0.0 0.0 0.00 0.06 0.06 75 1014.8
20260906145218 70 193 0.0 4.0 0.00 0.06 0.06 76 1014.8
20260906144221 70 204 0.0 0.0 0.00 0.06 0.06 78 1014.8
20260906143231 69 173 0.0 0.0 0.00 0.06 0.06 80 1014.6
20260906142234 69 160 0.0 3.0 0.00 0.06 0.06 80 1014.7
20260906141218 68 166 0.0 1.0 0.00 0.06 0.06 81 1014.5
20260906140211 68 183 0.0 0.0 0.00 0.06 0.06 83 1014.5
20260906135233 67 161 0.0 0.0 0.00 0.06 0.06 84 1014.4
20260906134254 67 173 0.0 0.0 0.00 0.06 0.06 86 1014.4
20260906133220 66 201 0.0 0.0 0.00 0.06 0.06 85 1014.4
20260906132238 66 205 0.0 0.0 0.00 0.06 0.06 87 1014.3
20260906131252 66 169 0.0 3.0 0.00 0.06 0.06 88 1014.4
20260906130305 66 188 0.0 1.0 0.00 0.06 0.06 88 1014.3
20260906125323 66 184 0.0 0.0 0.00 0.06 0.06 89 1014.3
20260906124253 65 193 0.0 2.0 0.00 0.06 0.06 89 1014.1
20260906123314 65 188 0.0 0.0 0.00 0.06 0.06 91 1014.0
20260906122319 65 187 0.0 0.0 0.00 0.06 0.06 91 1013.9
20260906121304 64 213 0.0 1.0 0.00 0.06 0.06 95 1014.0
20260906115149 63 170 0.0 0.0 0.00 0.06 0.06 96 1013.8
20260906114116 63 193 0.0 0.0 0.00 0.06 0.06 97 1013.6
20260906113109 62 152 0.0 0.0 0.00 0.06 0.06 98 1013.4
20260906112131 62 150 0.0 0.0 0.00 0.06 0.06 98 1013.3
20260906082100 63 170 0.0 0.0 0.00 0.06 0.06 97 1011.5
20260906081102 64 171 0.0 0.0 0.00 0.06 0.06 97 1011.6
20260906080107 64 169 0.0 0.0 0.00 0.06 0.06 98 1011.7
20260906075055 64 161 0.0 0.0 0.00 0.06 0.06 98 1011.7
20260906074105 65 132 0.0 0.0 0.00 0.06 0.06 98 1011.7
20260906073115 65 132 0.0 0.0 0.00 0.06 0.06 98 1011.6
20260906070956 65 132 0.0 0.0 0.00 0.06 0.06 97 1011.6
20260906065946 65 132 0.0 0.0 0.00 0.06 0.06 97 1011.7
20260906065008 65 133 0.0 0.0 0.00 0.06 0.06 97 1011.5
20260906064028 65 132 0.0 0.0 0.00 0.06 0.06 97 1011.5
20260906063039 65 133 0.0 0.0 0.00 0.06 0.06 97 1011.6
20260906062037 65 133 0.0 0.0 0.00 0.06 0.06 97 1011.8
20260906061027 65 134 0.0 0.0 0.00 0.06 0.06 96 1012.0
20260906060038 65 108 0.0 0.0 0.00 0.06 0.06 96 1012.0
20260906055006 65 183 0.0 0.0 0.05 0.06 0.06 96 1011.8
20260906054008 66 238 0.0 3.0 0.23 0.06 0.06 95 1011.9
20260906053014 66 221 0.0 0.0 0.00 0.00 0.00 96 1012.0
20260906051946 66 183 0.0 0.0 0.00 0.00 0.00 96 1011.9
20260906050944 66 190 0.0 0.0 0.00 0.00 0.00 96 1011.8
20260906045914 66 191 0.0 0.0 0.00 0.00 0.00 96 1011.8
20260906043808 66 190 0.0 0.0 0.00 0.00 0.00 94 1011.9
20260906041642 67 190 0.0 0.0 0.00 0.00 0.00 93 1011.8
20260906040658 67 190 0.0 0.0 0.00 0.00 0.00 92 1011.7
20260906034516 66 287 0.0 1.0 0.00 0.00 0.00 95 1011.8
20260906033517 66 166 0.0 0.0 0.00 0.00 0.00 96 1011.6
20260906032447 66 163 0.0 0.0 0.00 0.00 0.00 96 1011.6
20260906031430 66 163 0.0 0.0 0.00 0.00 0.00 96 1011.4
20260906030435 66 163 0.0 0.0 0.00 0.00 0.00 96 1011.3
20260906025433 66 163 0.0 0.0 0.00 0.00 0.00 95 1011.4
20260906023351 66 165 0.0 0.0 0.00 0.00 0.00 94 1011.2
20260906022400 66 165 0.0 0.0 0.00 0.00 0.00 93 1011.1
20260906014028 67 165 0.0 0.0 0.00 0.00 0.00 90 1011.2
20260906012957 68 165 0.0 0.0 0.00 0.00 0.00 90 1011.1
20260906012006 68 165 0.0 0.0 0.00 0.00 0.00 89 1011.0
20260906005914 68 165 0.0 0.0 0.00 0.00 0.00 88 1010.6
20260906004850 69 165 0.0 0.0 0.00 0.00 0.00 86 1010.4
20260906002720 70 165 0.0 0.0 0.00 0.00 0.00 84 1010.4
20260906000603 71 165 0.0 0.0 0.00 0.00 0.00 83 1010.0
20260905235544 71 165 0.0 0.0 0.00 0.00 0.00 82 1010.0
20260905234539 72 165 0.0 0.0 0.00 0.00 0.00 81 1009.9
20260905233511 72 165 0.0 0.0 0.00 0.00 0.00 81 1009.8
20260905232518 73 165 0.0 0.0 0.00 0.00 0.00 79 1009.7
20260905231519 73 165 0.0 0.0 0.00 0.00 0.00 78 1009.7
20260905230507 74 165 0.0 0.0 0.00 0.00 0.00 77 1009.6
20260905225457 74 165 0.0 0.0 0.00 0.00 0.00 76 1009.6
20260905224516 75 163 0.0 0.0 0.00 0.00 0.00 73 1009.5
20260905223533 75 165 0.0 0.0 0.00 0.00 0.00 72 1009.4
20260905221421 77 150 0.0 1.0 0.00 0.00 0.00 70 1009.3
20260905220359 77 223 0.0 2.0 0.00 0.00 0.00 69 1009.2
20260905215405 77 180 0.0 0.0 0.00 0.00 0.00 68 1009.2
20260905214405 77 170 0.0 0.0 0.00 0.00 0.00 69 1009.3
20260905213349 77 170 0.0 0.0 0.00 0.00 0.00 68 1009.2
20260905212346 77 169 0.0 0.0 0.00 0.00 0.00 68 1009.0
20260905211407 77 203 0.0 0.0 0.00 0.00 0.00 68 1009.0
20260905210410 78 184 0.0 4.0 0.00 0.00 0.00 65 1009.0
20260905205418 80 171 0.0 6.0 0.00 0.00 0.00 60 1008.8
20260905203207 81 171 1.0 2.0 0.00 0.00 0.00 60 1008.5
20260905202155 81 134 0.0 5.0 0.00 0.00 0.00 57 1008.5
20260905201210 80 183 0.0 3.0 0.00 0.00 0.00 63 1008.5
20260905200215 78 150 0.0 3.0 0.00 0.00 0.00 63 1008.6
20260905195236 79 176 0.0 2.0 0.00 0.00 0.00 62 1008.5
20260905194211 80 144 0.0 6.0 0.00 0.00 0.00 59 1008.5
20260905193204 81 181 1.0 4.0 0.00 0.00 0.00 57 1008.5
20260905192137 81 150 0.0 5.0 0.00 0.00 0.00 57 1008.5
20260905191116 81 98 0.0 3.0 0.00 0.00 0.00 58 1008.5
20260905184906 80 295 0.0 2.0 0.00 0.00 0.00 58 1008.6
20260905183913 81 182 0.0 4.0 0.00 0.00 0.00 56 1008.6
20260905182921 81 207 0.0 6.0 0.00 0.00 0.00 55 1008.7
20260905181902 81 190 1.0 6.0 0.00 0.00 0.00 55 1008.8
20260905180834 81 195 0.0 5.0 0.00 0.00 0.00 60 1008.8
20260905174724 80 162 1.0 5.0 0.00 0.00 0.00 59 1009.0
20260905172607 79 113 1.0 5.0 0.00 0.00 0.00 61 1009.1
20260905171546 79 211 0.0 5.0 0.00 0.00 0.00 59 1009.1
20260905170542 80 187 0.0 6.0 0.00 0.00 0.00 60 1009.2
20260905165539 79 167 1.0 6.0 0.00 0.00 0.00 60 1009.3
20260905164541 79 119 1.0 6.0 0.00 0.00 0.00 62 1009.3
20260905163559 78 129 0.0 4.0 0.00 0.00 0.00 65 1009.3
20260905162551 78 146 1.0 6.0 0.00 0.00 0.00 65 1009.2
20260905160506 76 191 0.0 5.0 0.00 0.00 0.00 66 1009.2
20260905155448 77 210 0.0 4.0 0.00 0.00 0.00 67 1009.2